Satellite Actuals Today Synoptics Week ahead

Weather information and forecast links for Shobdon, the Midlands, Western England and Wales

Today:

BBC Leominster local forecast and regional video.

Met Office general forecast

Met Office F214 and F215 charts (as displayed in the Aero Club each day) You have to register to use this site, but it is free.

Links to pretty much everything you need Rackham's home.

Satellite Met Office or Sat24 - visual for lower cloud, infrared for upper cloud.

XCWeather Wind map and local forecast

Will it Rain Today?

TAFs and METARs EGBB:Birmingham EGFF:Cardiff EGVN:Brize Norton

Local forecasts Met Office  MetCheck  Weatherweb

RASP Ridge wind forecast

Dewpoint+Temperature tephigram UK Soundings or Weather online


Other Club sites:Dunstable  Lasham  Nympsfield Long Mynd

Shobdon Hangar web-cam facing Southwest

Latest TAFs

Birmingham

2019/08/21 06:09
TAF EGBB 210453Z 2106/2206 21008KT 9999 FEW030 PROB30 
      TEMPO 2112/2116 8000 SHRA PROB30 
      TEMPO 2204/2206 BKN014

Brize Norton

2019/08/21 06:59
TAF EGVN 210457Z 2106/2206 23007KT 9999 FEW040 PROB30 
      TEMPO 2106/2107 7000 BR PROB30 2204/2206 7000 BR SCT014

Cardiff

2019/08/21 06:09
TAF EGFF 210453Z 2106/2206 25008KT 9999 FEW015 SCT025 PROB30 
      TEMPO 2106/2109 BKN014 
      TEMPO 2204/2206 BKN012

Select station

2019/08/21 06:09
TAF EGCC 210458Z 2106/2212 19009KT 9999 SCT030 PROB30 
      TEMPO 2106/2108 7000 
      TEMPO 2109/2117 6000 SHRA 
      TEMPO 2200/2212 7000 -RA PROB30 
      TEMPO 2205/2212 BKN010

Decode?  - Copy the TAF (from the station code) and paste it into the METARs/TAFs box here.

Soaring data for today

Data provided by RASP

Today's Forecast for Shobdon (52.24207,-2.87443)
Stars rating
Wind direction
Wind speed
Cumrasp-uk.ukulus potential
Surface Sunshine
Surface Temperature
MSL Pressuree
Rainfall